Home > Weather > Périgueux > Past weeks

Flag for France Past Weather in Périgueux, Aquitaine, France — Yesterday and Last 2 Weeks

Now
59 °F

Clear.


Feels Like: 59 °F
Forecast: 64 / 97 °F
Wind: 2 mph from Northeast

Location: Bergerac Airport

Current Time: Aug 24, 2016 at 8:54:27 AM

Latest Report: Aug 24, 2016 at 8:00 AM


Visibility: 10 mi

Pressure: 30.12 "Hg

Humidity: 94%

Dew Point: 57 °F

Location of PérigueuxLocation

Past Weather in Périgueux — Graph

°F

Périgueux Temperature Yesterday

Maximum temperature yesterday: 95 °F (at 4:00 PM)
Minimum temperature yesterday: 57 °F (at 5:00 AM)
Average temperature yesterday: 76 °F

High & Low Weather Summary for the Past Weeks

 TemperatureHumidityPressure
High95 °F (Aug 14, 5:00 PM)100% (Aug 12, 7:30 AM)30.36 "Hg (Aug 12, 7:30 AM)
Low45 °F (Aug 11, 7:00 AM)23% (Aug 14, 5:30 PM)29.83 "Hg (Aug 19, 9:00 AM)
Average70 °F64%30.11 "Hg
* Reported Aug 9 7:00 AM — Aug 24 7:30 AM, Périgueux, Weather by CustomWeather, © 2016

Note: Actual official high and low records may vary slightly from our data, if they occured in-between our weather recording intervals... More about our weather records

Advertising

Périgueux Weather History for the Previous 24 Hours

Scroll right to see more
 ConditionsComfort  
Time TempWeatherWind HumidityBarometerVisibility
7:30 AM
Wed, Aug 24
57 °FClear.5 mph94%30.12 "Hg10 mi
7:00 AM57 °FClear.3 mph94%30.09 "Hg10 mi
6:30 AM57 °FClear.2 mph94%30.09 "Hg10 mi
6:00 AM59 °FClear.5 mph94%30.09 "Hg10 mi
5:30 AM61 °FClear.3 mph88%30.09 "Hg10 mi
5:00 AM63 °FClear.2 mph83%30.09 "Hg10 mi
4:30 AM61 °FClear.3 mph88%30.09 "Hg10 mi
4:00 AM61 °FClear.6 mph88%30.09 "Hg10 mi
3:30 AM63 °FClear.7 mph88%30.09 "Hg10 mi
3:00 AM64 °FClear.2 mph83%30.09 "Hg10 mi
2:30 AM66 °FClear.5 mph78%30.09 "Hg10 mi
2:00 AM66 °FClear.5 mph78%30.09 "Hg10 mi
1:30 AM64 °FClear.5 mph83%30.09 "Hg10 mi
1:00 AM63 °FClear.5 mph88%30.09 "Hg10 mi
12:30 AM66 °FClear.3 mph78%30.09 "Hg10 mi
12:00 AM66 °FClear.6 mph78%30.09 "Hg10 mi
11:30 PM
Tue, Aug 23
68 °FClear.5 mph73%30.09 "Hg10 mi
11:00 PM68 °FClear.3 mph73%30.09 "Hg10 mi
10:30 PM70 °FClear.3 mph73%30.07 "Hg10 mi
10:00 PM72 °FClear.3 mph69%30.07 "Hg10 mi
9:30 PM77 °FSunny.2 mph54%30.07 "Hg10 mi
9:00 PM82 °FSunny.2 mph42%30.07 "Hg10 mi
8:30 PM88 °FSunny.2 mph35%30.07 "Hg10 mi
8:00 PM91 °FSunny.5 mph30%30.07 "Hg10 mi
7:30 PM91 °FSunny.6 mph30%30.07 "Hg10 mi
7:00 PM93 °FPassing clouds.7 mph28%30.07 "HgN/A
6:30 PM95 °FPassing clouds.8 mph25%30.07 "HgN/A
6:00 PM95 °FPassing clouds.8 mph25%30.07 "HgN/A
5:30 PM95 °FPassing clouds.6 mph25%30.07 "HgN/A
5:00 PM95 °FPassing clouds.6 mph26%30.07 "HgN/A
4:30 PM95 °FPassing clouds.7 mph28%30.07 "HgN/A
4:00 PM95 °FPassing clouds.6 mph26%30.09 "HgN/A
3:30 PM93 °FPassing clouds.7 mph28%30.09 "HgN/A
3:00 PM93 °FPassing clouds.5 mph26%30.09 "HgN/A
2:30 PM91 °FPassing clouds.7 mph30%30.09 "HgN/A
2:00 PM91 °FPassing clouds.7 mph28%30.12 "HgN/A
1:30 PM90 °FSunny.N/A29%30.12 "Hg10 mi
1:00 PM90 °FSunny.N/A29%30.12 "Hg10 mi
12:30 PM88 °FPassing clouds.6 mph31%30.12 "HgN/A
12:00 PM84 °FPleasantly warm.3 mph40%30.15 "HgN/A
11:30 AM82 °FSunny.3 mph45%30.15 "Hg10 mi
11:00 AM79 °FPassing clouds.5 mph51%30.15 "HgN/A
10:30 AM77 °FPassing clouds.5 mph51%30.15 "HgN/A
10:00 AM75 °FSunny.3 mph54%30.15 "Hg10 mi
9:30 AM72 °FSunny.No wind61%30.15 "Hg10 mi
9:00 AM70 °FSunny.2 mph69%30.15 "Hg10 mi
8:30 AM66 °FSunny.2 mph73%30.15 "Hg10 mi
8:00 AM63 °FClear.2 mph83%30.15 "Hg10 mi
Weather by CustomWeather, © 2016

See weather overviewHow to use our weather pages